Location: McFarlands Corners
(41.4117°N, 81.3382°W)
Time: 12:55:56
(UTC+00:00)

ARIANE 6 FM1 Upper Stage - Visible Passes

Search period start: 11 October 2024 00:00
Search period end: 21 October 2024 00:00
Orbit: 563 x 594 km, 62.0° (Epoch: 10 October)

Date Brightness Start Highest point End Pass type
(mag) Time Alt. Az. Time Alt. Az. Time Alt. Az.
14 Oct 5.2 00:52:56 10° N 00:53:48 12° N 00:53:48 12° N visible
15 Oct 5.0 00:56:37 10° N 00:57:55 15° N 00:57:55 15° N visible
16 Oct 4.8 01:00:27 10° NNW 01:02:03 19° N 01:02:03 19° N visible
17 Oct 4.7 01:04:21 10° NNW 01:06:11 22° N 01:06:11 22° N visible
17 Oct 4.9 23:30:43 10° N 23:32:28 12° NNE 23:34:05 10° NE visible
18 Oct 4.5 01:08:18 10° NNW 01:10:22 27° NNW 01:10:22 27° NNW visible
18 Oct 4.5 23:34:03 10° N 23:36:49 16° NE 23:38:19 14° ENE visible
19 Oct 4.4 01:12:18 10° NW 01:14:36 31° NW 01:14:36 31° NW visible
19 Oct 4.1 23:37:39 10° NNW 23:41:05 22° NE 23:42:37 19° ENE visible
20 Oct 4.5 01:16:24 10° NW 01:18:54 31° WNW 01:18:54 31° WNW visible
20 Oct 3.6 23:41:19 10° NNW 23:45:14 31° NE 23:47:00 23° E visible
